Home > Weather > Katowice > Past weeks

Flag for Poland Past Weather in Katowice, Poland — Yesterday and Last 2 Weeks

Now
70 °F

Passing clouds.


Feels Like: 70 °F
Forecast: 51 / 68 °F
Wind: 5 mph from Southeast

Location: Katowice Airport

Current Time: Jul 2, 2016 at 7:49:13 AM

Latest Report: Jul 2, 2016 at 7:30 AM


Visibility: N/A

Pressure: 30.01 "Hg

Humidity: 78%

Dew Point: 63 °F

Location of KatowiceLocation

Past Weather in Katowice — Graph

°F

Katowice Temperature Yesterday

Maximum temperature yesterday: 82 °F (at 5:30 PM)
Minimum temperature yesterday: 61 °F (at 12:30 AM)
Average temperature yesterday: 71 °F

High & Low Weather Summary for the Past Weeks

 TemperatureHumidityPressure
High93 °F (Jun 25, 4:30 PM)100% (Jun 20, 2:00 AM)30.30 "Hg (Jun 20, 2:00 AM)
Low46 °F (Jun 19, 4:30 AM)30% (Jun 25, 2:30 PM)29.47 "Hg (Jun 17, 9:00 AM)
Average68 °F71%30.05 "Hg
* Reported Jun 17 6:00 AM — Jul 2 6:30 AM, Katowice, Weather by CustomWeather, © 2016

Note: Actual official high and low records may vary slightly from our data, if they occured in-between our weather recording intervals... More about our weather records

Advertising

Katowice Weather History for the Previous 24 Hours

Scroll right to see more
 ConditionsComfort  
Time TempWeatherWind HumidityBarometerVisibility
6:30 AM
Sat, Jul 2
66 °FPassing clouds.3 mph88%30.01 "HgN/A
6:00 AM64 °FClear.5 mph88%30.01 "Hg5 mi
5:30 AM64 °FFog.6 mph88%30.01 "Hg5 mi
5:00 AM61 °FFog.5 mph94%30.01 "Hg3 mi
4:30 AM59 °FFog.1 mph100%30.01 "Hg4 mi
4:00 AM63 °FFog.5 mph94%30.01 "HgN/A
3:30 AM61 °FPassing clouds.3 mph94%30.01 "HgN/A
3:00 AM61 °FClear.3 mph100%30.01 "Hg5 mi
2:30 AM61 °FClear.3 mph94%30.01 "Hg10 mi
2:00 AM61 °FClear.2 mph94%30.04 "Hg10 mi
1:30 AM64 °FClear.2 mph88%30.04 "Hg10 mi
1:00 AM64 °FClear.1 mph88%30.04 "Hg10 mi
12:30 AM64 °FClear.3 mph94%30.04 "Hg10 mi
12:00 AM64 °FClear.2 mph94%30.04 "Hg10 mi
11:30 PM
Fri, Jul 1
68 °FClear.3 mph83%30.04 "Hg10 mi
11:00 PM68 °FPassing clouds.6 mph83%30.04 "HgN/A
10:30 PM68 °FClear.8 mph88%30.04 "Hg10 mi
10:00 PM68 °FPassing clouds.5 mph88%30.04 "HgN/A
9:30 PM72 °FSunny.6 mph78%30.04 "Hg10 mi
9:00 PM73 °FPassing clouds.6 mph74%30.04 "HgN/A
8:30 PM73 °FPassing clouds.8 mph78%30.04 "HgN/A
8:00 PM77 °FPassing clouds.7 mph65%30.04 "HgN/A
7:30 PM79 °FPassing clouds.7 mph58%30.04 "HgN/A
7:00 PM81 °FPassing clouds.7 mph54%30.01 "HgN/A
6:30 PM81 °FSunny.6 mph48%30.01 "Hg10 mi
6:00 PM81 °FPassing clouds.6 mph48%30.01 "HgN/A
5:30 PM82 °FPassing clouds.5 mph48%30.04 "HgN/A
5:00 PM79 °FPassing clouds.3 mph54%30.04 "HgN/A
4:30 PM79 °FPassing clouds.7 mph54%30.04 "HgN/A
4:00 PM81 °FPassing clouds.6 mph45%30.04 "HgN/A
3:30 PM79 °FPassing clouds.7 mph51%30.04 "HgN/A
3:00 PM81 °FSunny.5 mph48%30.04 "Hg10 mi
2:30 PM81 °FSunny.6 mph48%30.04 "Hg10 mi
2:00 PM79 °FSunny.3 mph54%30.04 "Hg10 mi
1:30 PM79 °FScattered clouds.7 mph54%30.04 "HgN/A
1:00 PM77 °FPassing clouds.6 mph61%30.07 "HgN/A
12:30 PM77 °FScattered clouds.5 mph61%30.07 "HgN/A
12:00 PM75 °FScattered clouds.2 mph61%30.07 "HgN/A
11:30 AM75 °FScattered clouds.2 mph61%30.07 "HgN/A
11:00 AM77 °FScattered clouds.2 mph61%30.07 "HgN/A
10:30 AM73 °FScattered clouds.3 mph69%30.07 "HgN/A
10:00 AM73 °FPassing clouds.5 mph69%30.07 "HgN/A
9:30 AM73 °FPassing clouds.2 mph65%30.07 "HgN/A
9:00 AM72 °FPassing clouds.2 mph73%30.07 "HgN/A
8:30 AM70 °FPassing clouds.3 mph83%30.07 "HgN/A
8:00 AM68 °FPassing clouds.5 mph83%30.07 "HgN/A
7:30 AM66 °FPassing clouds.5 mph88%30.04 "HgN/A
7:00 AM64 °FClear.1 mph94%30.04 "Hg6 mi
Weather by CustomWeather, © 2016

See weather overviewHow to use our weather pages